| time (UTC) | temp F | wind direction | speed MPH | gust MPH | rain 1hr in | rain 24hr in | rain mn in | humidity % | barometer mb |
| 20260510160925 | 55 | 0.0 | 0.0 | 0.00 | 0.00 | 0.00 | 991.1 | ||
| 20260510155925 | 56 | 0.0 | 0.0 | 0.00 | 0.00 | 0.00 | 991.2 | ||
| 20260510154925 | 56 | 0.0 | 0.0 | 0.00 | 0.00 | 0.00 | 991.3 | ||
| 20260510153925 | 56 | 0.0 | 0.0 | 0.00 | 0.00 | 0.00 | 991.3 | ||
| 20260510152924 | 57 | 0.0 | 0.0 | 0.00 | 0.00 | 0.00 | 991.4 | ||
| 20260510151924 | 57 | 0.0 | 0.0 | 0.00 | 0.00 | 0.00 | 991.4 | ||
| 20260510150924 | 59 | 0.0 | 0.0 | 0.00 | 0.00 | 0.00 | 991.7 | ||
| 20260510145924 | 59 | 0.0 | 0.0 | 0.00 | 0.00 | 0.00 | 991.8 | ||
| 20260510144924 | 60 | 0.0 | 0.0 | 0.00 | 0.00 | 0.00 | 991.8 | ||
| 20260510143923 | 60 | 0.0 | 0.0 | 0.00 | 0.00 | 0.00 | 991.8 | ||
| 20260510142923 | 58 | 0.0 | 0.0 | 0.00 | 0.00 | 0.00 | 991.9 | ||
| 20260510141923 | 61 | 0.0 | 0.0 | 0.00 | 0.00 | 0.00 | 992.1 | ||
| 20260510140923 | 64 | 0.0 | 0.0 | 0.00 | 0.00 | 0.00 | 992.2 | ||
| 20260510135923 | 64 | 0.0 | 0.0 | 0.00 | 0.00 | 0.00 | 992.3 | ||
| 20260510134922 | 62 | 0.0 | 0.0 | 0.00 | 0.00 | 0.00 | 992.2 | ||
| 20260510133922 | 59 | 0.0 | 0.0 | 0.00 | 0.00 | 0.00 | 992.3 | ||
| 20260510132922 | 59 | 0.0 | 0.0 | 0.00 | 0.00 | 0.00 | 992.4 | ||
| 20260510131922 | 58 | 0.0 | 0.0 | 0.00 | 0.00 | 0.00 | 992.6 | ||
| 20260510130922 | 58 | 0.0 | 0.0 | 0.00 | 0.00 | 0.00 | 992.6 | ||
| 20260510125921 | 57 | 0.0 | 0.0 | 0.00 | 0.00 | 0.00 | 992.7 | ||
| 20260510124921 | 57 | 0.0 | 0.0 | 0.00 | 0.00 | 0.00 | 992.8 | ||
| 20260510123921 | 57 | 0.0 | 0.0 | 0.00 | 0.00 | 0.00 | 992.8 | ||
| 20260510122921 | 57 | 0.0 | 0.0 | 0.00 | 0.00 | 0.00 | 992.8 | ||
| 20260510121920 | 57 | 0.0 | 0.0 | 0.00 | 0.00 | 0.00 | 992.8 | ||
| 20260510120920 | 57 | 0.0 | 0.0 | 0.00 | 0.00 | 0.00 | 993.1 | ||
| 20260510115920 | 58 | 0.0 | 0.0 | 0.00 | 0.00 | 0.00 | 993.2 | ||
| 20260510114920 | 58 | 0.0 | 0.0 | 0.00 | 0.00 | 0.00 | 993.4 | ||
| 20260510113920 | 57 | 0.0 | 0.0 | 0.00 | 0.00 | 0.00 | 993.4 | ||
| 20260510112919 | 58 | 0.0 | 0.0 | 0.00 | 0.00 | 0.00 | 993.6 | ||
| 20260510111919 | 58 | 0.0 | 0.0 | 0.00 | 0.00 | 0.00 | 993.6 | ||
| 20260510110919 | 57 | 0.0 | 0.0 | 0.00 | 0.00 | 0.00 | 993.6 | ||
| 20260510105919 | 58 | 0.0 | 0.0 | 0.00 | 0.00 | 0.00 | 993.8 | ||
| 20260510104918 | 58 | 0.0 | 0.0 | 0.00 | 0.00 | 0.00 | 993.9 | ||
| 20260510103918 | 57 | 0.0 | 0.0 | 0.00 | 0.00 | 0.00 | 993.9 | ||
| 20260510102918 | 56 | 0.0 | 0.0 | 0.00 | 0.00 | 0.00 | 993.9 | ||
| 20260510101918 | 56 | 0.0 | 0.0 | 0.00 | 0.00 | 0.00 | 993.9 | ||
| 20260510100918 | 56 | 0.0 | 0.0 | 0.00 | 0.00 | 0.00 | 993.9 | ||
| 20260510095917 | 55 | 0.0 | 0.0 | 0.00 | 0.00 | 0.00 | 993.8 | ||
| 20260510094917 | 54 | 0.0 | 0.0 | 0.00 | 0.00 | 0.00 | 993.9 | ||
| 20260510093917 | 54 | 0.0 | 0.0 | 0.00 | 0.00 | 0.00 | 993.9 | ||
| 20260510092917 | 54 | 0.0 | 0.0 | 0.00 | 0.00 | 0.00 | 994.1 | ||
| 20260510091916 | 54 | 0.0 | 0.0 | 0.00 | 0.00 | 0.00 | 994.1 | ||
| 20260510090916 | 53 | 0.0 | 0.0 | 0.00 | 0.00 | 0.00 | 994.1 | ||
| 20260510085916 | 53 | 0.0 | 0.0 | 0.00 | 0.00 | 0.00 | 994.2 | ||
| 20260510084916 | 52 | 0.0 | 0.0 | 0.00 | 0.00 | 0.00 | 994.3 | ||
| 20260510083916 | 52 | 0.0 | 0.0 | 0.00 | 0.00 | 0.00 | 994.3 | ||
| 20260510082915 | 51 | 0.0 | 0.0 | 0.00 | 0.00 | 0.00 | 994.4 | ||
| 20260510081915 | 51 | 0.0 | 0.0 | 0.00 | 0.00 | 0.00 | 994.5 | ||
| 20260510080915 | 50 | 0.0 | 0.0 | 0.00 | 0.00 | 0.00 | 994.6 | ||
| 20260510075915 | 50 | 0.0 | 0.0 | 0.00 | 0.00 | 0.00 | 994.7 | ||
| 20260510074914 | 49 | 0.0 | 0.0 | 0.00 | 0.00 | 0.00 | 994.7 | ||
| 20260510073914 | 48 | 0.0 | 0.0 | 0.00 | 0.00 | 0.00 | 994.8 | ||
| 20260510072914 | 48 | 0.0 | 0.0 | 0.00 | 0.00 | 0.00 | 994.9 | ||
| 20260510071914 | 48 | 0.0 | 0.0 | 0.00 | 0.00 | 0.00 | 995.2 | ||
| 20260510070914 | 48 | 0.0 | 0.0 | 0.00 | 0.00 | 0.00 | 995.0 | ||
| 20260510065913 | 47 | 0.0 | 0.0 | 0.00 | 0.00 | 0.00 | 995.1 | ||
| 20260510064913 | 47 | 0.0 | 0.0 | 0.00 | 0.00 | 0.00 | 995.1 | ||
| 20260510063913 | 46 | 0.0 | 0.0 | 0.00 | 0.00 | 0.00 | 995.2 | ||
| 20260510062913 | 46 | 0.0 | 0.0 | 0.00 | 0.00 | 0.00 | 995.3 | ||
| 20260510061913 | 46 | 0.0 | 0.0 | 0.00 | 0.00 | 0.00 | 995.3 | ||
| 20260510060912 | 46 | 0.0 | 0.0 | 0.00 | 0.00 | 0.00 | 995.3 | ||
| 20260510055912 | 47 | 0.0 | 0.0 | 0.00 | 0.00 | 0.00 | 995.3 | ||
| 20260510054912 | 46 | 0.0 | 0.0 | 0.00 | 0.00 | 0.00 | 995.4 | ||
| 20260510053912 | 46 | 0.0 | 0.0 | 0.00 | 0.00 | 0.00 | 995.4 | ||
| 20260510052912 | 46 | 0.0 | 0.0 | 0.00 | 0.00 | 0.00 | 995.4 | ||
| 20260510051911 | 46 | 0.0 | 0.0 | 0.00 | 0.00 | 0.00 | 995.4 | ||
| 20260510050911 | 45 | 0.0 | 0.0 | 0.00 | 0.00 | 0.00 | 995.4 | ||
| 20260510045911 | 45 | 0.0 | 0.0 | 0.00 | 0.00 | 0.00 | 995.6 | ||
| 20260510044911 | 45 | 0.0 | 0.0 | 0.00 | 0.00 | 0.00 | 995.6 | ||
| 20260510043910 | 44 | 0.0 | 0.0 | 0.00 | 0.00 | 0.00 | 995.9 | ||
| 20260510042910 | 44 | 0.0 | 0.0 | 0.00 | 0.00 | 0.00 | 995.9 | ||
| 20260510041910 | 44 | 0.0 | 0.0 | 0.00 | 0.00 | 0.00 | 996.1 | ||
| 20260510040910 | 43 | 0.0 | 0.0 | 0.00 | 0.00 | 0.00 | 996.0 | ||
| 20260510035909 | 43 | 0.0 | 0.0 | 0.00 | 0.00 | 0.00 | 996.1 | ||
| 20260510034909 | 43 | 0.0 | 0.0 | 0.00 | 0.00 | 0.00 | 996.2 | ||
| 20260510033909 | 43 | 0.0 | 0.0 | 0.00 | 0.00 | 0.00 | 996.2 | ||
| 20260510032909 | 43 | 0.0 | 0.0 | 0.00 | 0.00 | 0.00 | 996.4 | ||
| 20260510031909 | 43 | 0.0 | 0.0 | 0.00 | 0.00 | 0.00 | 996.3 | ||
| 20260510030908 | 43 | 0.0 | 0.0 | 0.00 | 0.00 | 0.00 | 996.7 | ||
| 20260510025908 | 43 | 0.0 | 0.0 | 0.00 | 0.00 | 0.00 | 996.7 | ||
| 20260510024908 | 43 | 0.0 | 0.0 | 0.00 | 0.00 | 0.00 | 996.8 | ||
| 20260510023908 | 43 | 0.0 | 0.0 | 0.00 | 0.00 | 0.00 | 996.7 | ||
| 20260510022908 | 43 | 0.0 | 0.0 | 0.00 | 0.00 | 0.00 | 996.9 | ||
| 20260510021907 | 43 | 0.0 | 0.0 | 0.00 | 0.00 | 0.00 | 996.8 | ||
| 20260510020907 | 43 | 0.0 | 0.0 | 0.00 | 0.00 | 0.00 | 996.9 | ||
| 20260510015907 | 43 | 0.0 | 0.0 | 0.00 | 0.00 | 0.00 | 996.9 | ||
| 20260510014907 | 43 | 0.0 | 0.0 | 0.00 | 0.00 | 0.00 | 997.0 | ||
| 20260510013906 | 43 | 0.0 | 0.0 | 0.00 | 0.00 | 0.00 | 997.1 | ||
| 20260510012906 | 43 | 0.0 | 0.0 | 0.00 | 0.00 | 0.00 | 997.2 | ||
| 20260510011906 | 43 | 0.0 | 0.0 | 0.00 | 0.00 | 0.00 | 997.3 | ||
| 20260510010906 | 43 | 0.0 | 0.0 | 0.00 | 0.00 | 0.00 | 997.5 | ||
| 20260510005906 | 43 | 0.0 | 0.0 | 0.00 | 0.00 | 0.00 | 997.4 | ||
| 20260510004905 | 43 | 0.0 | 0.0 | 0.00 | 0.00 | 0.00 | 997.4 | ||
| 20260510003905 | 43 | 0.0 | 0.0 | 0.00 | 0.00 | 0.00 | 997.6 | ||
| 20260510002905 | 43 | 0.0 | 0.0 | 0.00 | 0.00 | 0.00 | 997.8 | ||
| 20260510001905 | 43 | 0.0 | 0.0 | 0.00 | 0.00 | 0.00 | 997.9 | ||
| 20260510000904 | 43 | 0.0 | 0.0 | 0.00 | 0.00 | 0.00 | 998.0 | ||
| 20260509235904 | 43 | 0.0 | 0.0 | 0.00 | 0.00 | 0.00 | 998.2 | ||
| 20260509234904 | 43 | 0.0 | 0.0 | 0.00 | 0.00 | 0.00 | 998.4 | ||
| 20260509233904 | 43 | 0.0 | 0.0 | 0.00 | 0.00 | 0.00 | 998.7 | ||
| 20260509232903 | 43 | 0.0 | 0.0 | 0.00 | 0.00 | 0.00 | 998.9 | ||
| 20260509231903 | 43 | 0.0 | 0.0 | 0.00 | 0.00 | 0.00 | 999.0 | ||
| 20260509230903 | 43 | 0.0 | 0.0 | 0.00 | 0.00 | 0.00 | 999.1 | ||
| 20260509225903 | 43 | 0.0 | 0.0 | 0.00 | 0.00 | 0.00 | 999.2 | ||
| 20260509224903 | 43 | 0.0 | 0.0 | 0.00 | 0.00 | 0.00 | 999.4 | ||
| 20260509223902 | 43 | 0.0 | 0.0 | 0.00 | 0.00 | 0.00 | 999.5 | ||
| 20260509222902 | 43 | 0.0 | 0.0 | 0.00 | 0.00 | 0.00 | 999.6 | ||
| 20260509221902 | 43 | 0.0 | 0.0 | 0.00 | 0.00 | 0.00 | 999.8 | ||
| 20260509220902 | 43 | 0.0 | 0.0 | 0.00 | 0.00 | 0.00 | 1000.0 | ||
| 20260509215901 | 43 | 0.0 | 0.0 | 0.00 | 0.00 | 0.00 | 1000.2 | ||
| 20260509214901 | 44 | 0.0 | 0.0 | 0.00 | 0.00 | 0.00 | 1000.2 | ||
| 20260509213901 | 44 | 0.0 | 0.0 | 0.00 | 0.00 | 0.00 | 1000.3 | ||
| 20260509212901 | 44 | 0.0 | 0.0 | 0.00 | 0.00 | 0.00 | 1000.3 | ||
| 20260509211901 | 44 | 0.0 | 0.0 | 0.00 | 0.00 | 0.00 | 1000.2 | ||
| 20260509210900 | 44 | 0.0 | 0.0 | 0.00 | 0.00 | 0.00 | 1000.4 | ||
| 20260509205900 | 44 | 0.0 | 0.0 | 0.00 | 0.00 | 0.00 | 1000.4 | ||
| 20260509204900 | 44 | 0.0 | 0.0 | 0.00 | 0.00 | 0.00 | 1000.4 | ||
| 20260509203900 | 44 | 0.0 | 0.0 | 0.00 | 0.00 | 0.00 | 1000.6 | ||
| 20260509202859 | 44 | 0.0 | 0.0 | 0.00 | 0.00 | 0.00 | 1000.6 | ||
| 20260509201859 | 45 | 0.0 | 0.0 | 0.00 | 0.00 | 0.00 | 1000.7 | ||
| 20260509200859 | 45 | 0.0 | 0.0 | 0.00 | 0.00 | 0.00 | 1000.8 | ||
| 20260509195859 | 45 | 0.0 | 0.0 | 0.00 | 0.00 | 0.00 | 1000.8 | ||
| 20260509194859 | 45 | 0.0 | 0.0 | 0.00 | 0.00 | 0.00 | 1001.0 | ||
| 20260509193858 | 45 | 0.0 | 0.0 | 0.00 | 0.00 | 0.00 | 1000.9 | ||
| 20260509192858 | 45 | 0.0 | 0.0 | 0.00 | 0.00 | 0.00 | 1000.9 | ||
| 20260509191858 | 45 | 0.0 | 0.0 | 0.00 | 0.00 | 0.00 | 1000.7 | ||
| 20260509190858 | 46 | 0.0 | 0.0 | 0.00 | 0.00 | 0.00 | 1000.8 | ||
| 20260509185857 | 46 | 0.0 | 0.0 | 0.00 | 0.00 | 0.00 | 1001.0 | ||
| 20260509184857 | 46 | 0.0 | 0.0 | 0.00 | 0.00 | 0.00 | 1001.2 | ||
| 20260509183857 | 46 | 0.0 | 0.0 | 0.00 | 0.00 | 0.00 | 1001.1 | ||
| 20260509182857 | 46 | 0.0 | 0.0 | 0.00 | 0.00 | 0.00 | 1001.1 | ||
| 20260509181856 | 46 | 0.0 | 0.0 | 0.00 | 0.00 | 0.00 | 1001.0 | ||
| 20260509180856 | 46 | 0.0 | 0.0 | 0.00 | 0.00 | 0.00 | 1001.1 | ||
| 20260509175856 | 46 | 0.0 | 0.0 | 0.00 | 0.00 | 0.00 | 1001.1 | ||
| 20260509174856 | 47 | 0.0 | 0.0 | 0.00 | 0.00 | 0.00 | 1001.2 | ||
| 20260509173855 | 47 | 0.0 | 0.0 | 0.00 | 0.00 | 0.00 | 1001.4 | ||
| 20260509172855 | 47 | 0.0 | 0.0 | 0.00 | 0.00 | 0.00 | 1001.5 | ||
| 20260509171855 | 48 | 0.0 | 0.0 | 0.00 | 0.00 | 0.00 | 1001.4 | ||
| 20260509170855 | 48 | 0.0 | 0.0 | 0.00 | 0.00 | 0.00 | 1001.5 | ||
| 20260509165854 | 49 | 0.0 | 0.0 | 0.00 | 0.00 | 0.00 | 1001.6 | ||
| 20260509164854 | 49 | 0.0 | 0.0 | 0.00 | 0.00 | 0.00 | 1001.7 | ||
| 20260509163854 | 49 | 0.0 | 0.0 | 0.00 | 0.00 | 0.00 | 1001.7 | ||
| 20260509162854 | 50 | 0.0 | 0.0 | 0.00 | 0.00 | 0.00 | 1001.8 | ||
| 20260509161853 | 51 | 0.0 | 0.0 | 0.00 | 0.00 | 0.00 | 1002.0 |